#timestamp,LO_Frequency,Hit 
1501729215.7,286047076.2,N
1501729235.5,286047075.9,N
1501729255.4,286047075.4,N
1501729275.2,286047075.2,N
1501729295.0,286047077.8,N
1501729295.9,286047077.8,N
1501729315.8,286047075.5,N
1501729335.6,286047077.6,N
1501729355.4,286047075.9,N
1501729375.3,286047076.1,N
1501729395.1,286047075.6,N
1501729396.0,286047075.6,N
1501729415.8,286047075.7,N
1501729435.6,286047075.6,N
1501729455.5,286047075.6,N
1501729475.3,286047075.5,N
1501729495.1,286047075.3,N
1501729515.9,286047075.2,N
1501729535.7,286047079.1,N
1501729555.5,286047077.0,N
1501729575.4,286047076.5,N
1501729595.2,286047078.7,N
1501729615.0,286047078.2,N
1501729615.9,286047078.2,N
1501729635.8,286047078.1,N
1501729655.6,286047081.0,N
1501729675.4,286047080.8,N
1501729695.3,286047082.7,Y
1501729715.1,286047047.1,N
1501729716.0,286047047.1,N
1501729735.8,286047042.9,N
1501729755.7,286047045.7,N
1501729775.5,286047047.6,N
1501729795.3,286047047.4,N
1501729815.2,286047047.2,N
1501729835.9,286047046.9,N
1501729855.7,286047049.2,N
1501729875.5,286047046.6,N
1501729895.4,286047049.2,N
1501729915.2,286047048.4,N
1501729935.0,286047046.9,N
1501729935.9,286047046.9,N
1501729955.8,286047047.0,N
1501729975.6,286047044.5,N
1501729995.4,286047045.5,N
1501730015.3,286047042.9,N
1501730035.1,286047045.7,N
1501730036.0,286047045.7,N
1501730055.8,286047044.6,N
1501730075.7,286047046.8,N
1501730095.5,286047047.1,N
1501730115.3,286047046.0,N
1501730135.1,286047043.4,N
1501730155.9,286047045.1,N
1501730175.7,286047044.6,N
1501730195.5,286047046.8,N
1501730215.4,286047044.6,N
1501730235.2,286047045.1,N
1501730255.0,286047043.3,N
1501730255.9,286047043.3,N
1501730275.8,286047045.4,N
1501730295.6,286047047.0,N
1501730315.4,286047047.6,N
1501730335.3,286047046.1,N
1501730355.1,286047046.3,N
1501730356.0,286047046.3,N
1501730375.8,286047046.4,N
1501730395.7,286047048.6,N
1501730415.5,286047050.6,N
1501730435.3,286047050.4,N
1501730455.1,286047050.3,N
1501730475.9,286047049.9,N
1501730495.7,286047052.4,N
1501730515.5,286047050.7,N
1501730535.4,286047050.1,N
1501730555.2,286047048.2,N
1501730575.0,286047050.2,N
1501730575.9,286047050.2,N
1501730595.8,286047050.2,N
1501730615.6,286047050.1,N
1501730635.4,286047052.4,N
1501730655.3,286047049.8,N
1501730675.1,286047050.5,N
1501730676.0,286047050.5,N
1501730695.8,286047050.5,N
1501730715.7,286047049.3,N
1501730735.5,286047050.0,N
1501730755.3,286047049.7,N
1501730775.1,286047052.1,N
1501730795.9,286047051.8,N
1501730815.7,286047052.2,N
1501730835.5,286047049.9,N
1501730855.4,286047051.9,N
1501730875.2,286047053.9,N
1501730895.0,286047053.5,N
1501730895.9,286047053.5,N
1501730915.8,286047051.2,N
1501730935.6,286047051.8,N
1501730955.4,286047052.0,N
1501730975.3,286047051.2,N
1501730995.1,286047053.6,N
1501730996.0,286047053.6,N
1501731015.8,286047050.9,N
1501731035.6,286047051.7,N
1501731055.5,286047053.6,N
1501731075.3,286047053.3,N
1501731095.1,286047053.3,N
1501731115.9,286047053.5,N
1501731135.7,286047052.7,N
1501731155.5,286047053.1,N
1501731175.4,286047053.2,N
1501731195.2,286047052.7,N
1501731215.0,286047052.9,N
1501731215.9,286047052.9,N
1501731235.8,286047051.5,N
1501731255.6,286047051.3,N
1501731275.4,286047051.6,N
1501731295.2,286047051.8,N
1501731315.1,286047051.6,N
1501731316.0,286047051.6,N
1501731335.8,286047053.7,N
1501731355.6,286047055.4,N
1501731375.5,286047057.2,N
1501731395.3,286047054.1,N
1501731415.1,286047054.8,N
1501731435.9,286047054.7,N
1501731455.7,286047052.6,N
1501731475.5,286047055.0,N
1501731495.4,286047055.3,N
1501731515.2,286047054.2,N
1501731535.0,286047054.6,N
1501731535.9,286047054.6,N
1501731555.8,286047056.8,N
1501731575.6,286047054.1,N
1501731595.4,286047052.5,N
1501731615.2,286047052.9,N
1501731635.1,286047053.2,N
1501731636.0,286047053.2,N
1501731655.8,286047055.2,N
1501731675.6,286047052.7,N
1501731695.5,286047054.4,N
1501731715.3,286047054.4,N
1501731735.1,286047054.2,N
1501731755.9,286047057.0,N
1501731775.7,286047056.2,N
1501731795.5,286047056.4,N
1501731815.4,286047056.2,N
1501731835.2,286047056.3,N
1501731855.0,286047058.5,N
1501731855.9,286047058.5,N
1501731875.8,286047055.7,N
1501731895.6,286047056.2,N
1501731915.4,286047056.8,N
1501731935.2,286047056.7,N
1501731955.1,286047056.1,N
1501731956.0,286047056.1,N
1501731975.8,286047055.9,N
1501731995.6,286047056.9,N
1501732015.5,286047056.1,N
1501732035.3,286047056.2,N
1501732055.1,286047058.7,N
1501732075.9,286047058.1,N
1501732095.7,286047058.1,N
1501732115.5,286047058.8,N
1501732135.4,286047057.7,N
1501732155.2,286047058.0,N
1501732175.0,286047057.5,N
1501732175.9,286047057.5,N
1501732195.8,286047057.6,N
1501732215.6,286047060.1,N
1501732235.4,286047059.3,N
1501732255.2,286047059.4,N
1501732275.1,286047059.0,N
1501732276.0,286047059.0,N
1501732295.8,286047061.6,N
1501732315.6,286047061.4,N
1501732335.5,286047063.5,Y
1501732355.3,286047015.7,N
1501732375.1,286047018.5,N
1501732395.9,286047020.4,N
1501732415.7,286047019.9,N
1501732435.5,286047020.1,N
1501732455.4,286047017.6,N
1501732475.2,286047020.4,N
1501732495.0,286047018.3,N
1501732495.9,286047018.3,N
1501732515.8,286047017.9,N
1501732535.6,286047020.3,N
1501732555.4,286047019.4,N
1501732575.2,286047019.4,N
1501732595.1,286047019.7,N
1501732596.0,286047019.7,N
1501732615.8,286047019.3,N
1501732635.6,286047021.5,N
1501732655.5,286047021.3,N
1501732675.3,286047020.8,N
1501732695.1,286047020.9,N
1501732715.9,286047019.7,N
1501732735.7,286047020.4,N
1501732755.5,286047020.0,N
1501732775.4,286047020.3,N
1501732795.2,286047017.5,N
